Theta_e
314 314 320 322 324 324 325 333 335 336 334 322 320 324 317 323 325 319 321 319 321 320 320 322 326 325 325 332 333 335 334 335 336 329 335 342 339 339 339 337 337 335 336 338 338 339 339 340 339 339 339 338 338 337 337 336 335 334 332 331 330 328 325 322 319 319 324 331 332 332 332 331 331 329 330 331 331 331 333 334 333 332 330 329 328 325 325 329 330 330 330 329 328 329 330 330 331
314 315 322 324 324 323 327 340 337 331 332 319 318 324 317 326 326 321 326 322 323 320 320 324 328 331 329 332 333 337 338 336 335 332 336 339 339 340 339 337 336 335 337 337 338 339 339 339 338 339 339 339 339 337 336 335 334 333 333 330 328 327 326 322 319 320 324 330 332 332 331 331 330 329 331 332 331 330 332 333 331 330 328 328 328 325 327 330 329 329 329 328 328 329 330 330 330
314 318 324 324 324 326 336 342 335 328 327 320 318 323 323 327 326 326 328 322 323 322 322 323 326 326 327 336 335 335 337 337 339 337 338 340 340 340 340 338 335 335 336 337 338 338 338 338 338 338 339 339 338 337 336 334 333 335 333 329 328 328 327 323 319 322 325 329 331 332 331 331 330 330 331 331 330 330 332 333 331 330 327 326 327 327 328 329 329 329 329 328 328 329 331 330 329
317 322 324 325 332 337 344 339 336 331 321 320 317 318 327 328 327 326 323 321 323 322 322 324 324 320 330 343 336 339 340 337 339 339 340 339 341 341 341 339 336 336 336 337 337 338 338 338 338 338 339 339 338 337 336 333 333 335 332 328 328 328 327 324 320 323 327 329 329 331 331 330 329 330 332 331 331 332 333 333 333 332 328 327 326 327 329 329 328 329 329 329 328 328 330 330 329
321 324 322 324 335 337 337 330 336 334 318 322 319 319 329 325 326 324 320 322 322 322 322 325 323 318 331 337 333 343 342 338 339 338 340 340 341 340 340 339 336 336 336 337 338 338 337 337 338 339 339 338 337 337 335 333 333 334 331 329 329 329 328 325 320 321 327 330 330 330 331 330 329 330 333 333 333 333 333 333 332 331 330 327 326 327 328 328 328 329 329 328 329 328 329 329 329
323 323 323 322 325 327 332 324 322 326 322 329 324 323 327 323 324 323 320 320 320 322 321 323 323 324 333 331 330 338 337 338 340 337 340 340 341 341 340 339 336 336 337 338 338 337 337 338 338 339 339 338 338 337 335 332 332 332 331 330 329 330 329 326 322 319 325 330 331 331 330 330 329 329 331 332 333 332 331 332 332 331 330 327 326 328 328 327 328 329 328 328 329 329 328 328 326
323 322 329 330 325 326 335 326 319 322 321 324 327 325 325 322 321 322 320 320 319 318 319 321 325 332 333 329 330 334 334 336 338 338 341 340 340 340 340 339 338 337 337 338 337 338 337 337 337 337 338 337 337 337 335 331 330 331 331 331 330 331 329 327 323 318 320 327 331 331 330 330 329 329 330 331 332 330 329 331 332 331 329 325 326 328 328 327 327 328 328 328 328 328 328 327 324
324 322 333 339 333 333 334 327 323 326 319 318 324 323 323 322 320 322 321 321 320 318 318 318 325 331 327 331 336 335 335 335 338 339 341 341 341 340 340 339 338 337 338 338 337 338 337 337 337 336 337 337 337 337 335 332 329 331 331 331 331 332 330 328 326 320 317 322 329 331 330 329 329 328 329 331 330 329 329 332 332 330 326 323 326 328 327 327 327 328 328 328 328 328 327 325 324
322 321 329 332 330 336 331 319 319 322 319 320 321 321 322 319 320 322 321 320 319 318 319 317 323 326 328 339 339 334 336 337 338 339 341 341 340 340 340 339 338 338 339 339 338 337 337 337 336 335 335 335 336 337 336 332 329 330 331 331 332 332 330 329 327 322 317 318 325 329 330 329 329 328 328 330 331 330 330 332 332 330 326 323 326 328 327 327 327 328 328 327 327 328 327 325 325
324 322 327 331 333 332 321 317 321 320 318 320 320 322 321 317 320 321 320 319 318 320 319 318 321 325 331 341 337 334 337 337 337 339 341 340 340 341 340 340 339 339 340 340 339 337 337 337 337 336 335 334 334 336 335 333 330 329 330 331 332 332 330 329 327 324 319 315 318 324 329 329 329 328 328 330 331 331 331 332 331 329 327 322 325 327 326 327 327 327 327 326 326 327 327 326 326
330 326 333 335 330 323 319 321 323 322 318 318 318 319 319 318 320 318 320 318 318 322 319 317 322 328 332 335 334 333 335 337 338 338 339 340 340 340 340 340 339 340 340 340 339 337 337 337 337 337 336 335 333 333 335 333 330 329 329 331 332 332 330 329 328 325 321 316 313 317 326 329 329 328 328 329 330 331 330 330 329 328 326 322 324 327 325 326 327 326 325 326 327 327 327 326 326
329 330 343 332 323 322 324 324 321 322 318 317 318 317 317 317 318 317 320 320 320 321 319 318 319 329 332 330 332 332 335 337 337 337 338 340 340 340 340 341 340 340 340 340 340 337 337 337 337 338 337 336 331 329 333 333 330 329 329 330 332 331 330 329 328 327 323 318 314 313 320 326 328 329 328 328 329 330 329 329 327 327 325 322 323 326 325 326 325 324 323 323 326 327 326 325 326
333 335 340 324 325 326 323 324 320 321 317 320 320 317 317 317 319 318 319 321 320 319 318 316 318 330 332 329 331 331 335 337 337 338 338 340 340 340 340 340 341 340 341 341 340 337 336 337 337 337 337 336 332 325 330 333 329 329 329 330 331 331 330 329 328 327 324 321 316 313 315 321 325 327 327 326 327 328 328 327 326 325 325 322 323 325 325 325 323 322 322 322 324 325 325 325 325
331 340 340 321 326 328 324 323 319 320 320 325 322 316 317 316 319 317 318 320 319 319 316 314 320 333 332 330 334 332 334 336 337 339 337 340 339 339 339 340 341 340 341 340 341 337 336 337 337 337 337 337 333 324 328 331 328 329 329 331 331 330 331 330 329 328 326 323 318 314 312 316 321 323 323 322 323 326 327 325 324 324 324 323 322 324 323 323 322 321 321 321 322 323 324 324 324
325 343 345 326 323 323 323 321 321 324 321 324 320 317 318 315 318 316 318 320 319 318 314 313 318 323 327 336 341 332 333 336 337 338 338 339 338 339 339 340 341 340 341 340 341 337 335 337 336 337 336 337 335 326 327 330 328 329 329 331 331 330 331 330 329 328 327 324 320 315 312 313 316 317 317 318 320 322 324 323 323 324 323 323 322 323 323 322 321 321 321 321 321 322 322 322 322
333 346 338 323 321 317 318 320 322 324 321 322 318 318 319 314 316 316 315 319 318 315 317 315 314 317 323 333 334 329 332 336 336 337 337 338 337 339 340 341 341 340 341 340 341 337 335 336 336 337 336 336 336 329 326 328 328 329 330 331 331 331 331 330 330 329 328 326 322 317 313 312 312 313 313 315 316 317 321 322 323 323 323 323 321 321 322 321 321 321 321 321 321 321 321 321 321
337 343 333 321 321 318 317 320 320 321 321 322 317 317 319 315 316 314 313 317 317 317 320 317 318 326 330 329 324 327 333 335 335 335 336 337 338 339 341 342 341 341 341 341 341 338 335 335 336 337 336 336 336 333 327 327 328 329 331 332 332 331 331 331 330 329 328 327 324 320 316 314 312 312 312 311 311 312 315 317 319 320 322 322 320 320 320 319 321 321 321 321 320 320 320 320 320
331 333 333 325 325 321 318 321 321 321 321 320 318 318 319 316 316 314 313 317 316 317 318 321 330 331 329 329 324 330 335 335 336 335 335 337 338 340 340 341 341 341 341 341 341 339 336 335 336 336 337 336 336 336 330 326 328 331 332 333 332 331 331 331 331 330 329 327 326 323 319 316 313 312 313 310 307 307 309 309 311 315 318 319 319 321 320 319 321 320 320 320 319 320 319 320 319
330 330 327 332 336 321 315 320 319 319 319 320 318 318 319 317 316 315 314 315 315 318 316 324 344 337 328 330 329 333 335 334 336 334 335 336 338 339 339 340 340 341 341 341 341 341 339 336 336 336 336 337 336 337 334 329 327 330 333 334 333 332 332 331 331 330 330 328 326 325 321 318 315 314 314 312 307 304 304 304 305 308 312 313 316 319 319 320 321 319 319 318 319 319 319 319 319
330 332 324 333 337 321 315 318 317 318 318 319 318 316 316 316 315 314 315 316 315 320 318 320 341 342 333 331 330 333 333 334 335 334 334 334 337 338 338 339 339 341 340 341 341 341 340 338 336 336 336 337 337 337 337 334 331 331 333 334 334 334 333 332 332 331 330 329 327 326 323 320 317 316 315 313 309 304 302 302 302 303 306 308 310 316 318 321 320 319 319 318 318 319 319 319 319
322 331 331 330 325 320 317 317 319 318 315 318 318 315 315 315 314 314 316 317 315 318 320 318 330 340 334 330 330 331 331 332 333 333 333 333 336 337 338 339 339 340 340 341 341 340 340 340 338 337 336 336 337 337 337 337 335 334 334 334 335 335 334 334 333 332 331 330 328 326 324 321 319 318 316 314 311 306 302 301 301 302 303 304 307 313 317 319 319 319 318 318 318 318 319 319 319
317 320 329 327 319 318 318 318 320 316 315 317 317 316 315 315 314 316 316 316 319 317 318 317 323 334 333 330 329 329 329 330 330 331 332 332 334 336 337 338 339 339 340 341 340 339 339 340 339 338 337 337 337 337 337 337 337 336 335 335 335 335 335 334 333 332 331 330 329 327 324 323 320 319 318 316 313 308 303 301 301 302 302 304 307 311 316 318 318 317 317 318 318 318 318 318 318
322 316 319 321 318 319 318 318 320 317 317 317 317 316 315 316 315 317 316 315 322 319 318 315 316 328 331 329 328 329 329 328 328 330 331 332 332 334 336 337 338 338 339 341 339 339 338 339 339 338 338 338 338 337 337 337 337 337 336 336 336 336 335 334 334 332 332 331 329 327 325 324 322 321 320 318 316 311 306 303 301 301 302 304 307 310 314 317 317 315 315 316 317 317 317 317 317
324 318 316 317 316 319 317 317 319 319 319 317 316 315 315 318 316 315 315 317 322 317 315 310 310 324 329 328 328 328 328 327 328 329 330 332 332 334 336 336 338 337 338 340 340 339 339 339 338 338 338 338 339 337 336 337 337 337 337 337 337 336 336 335 333 332 332 331 330 328 326 326 325 323 322 321 319 314 308 305 303 302 302 304 307 310 312 314 315 314 313 313 314 315 315 315 315
319 317 317 317 317 318 317 317 320 319 318 316 315 315 317 318 315 315 317 320 322 316 313 311 314 325 329 329 330 327 326 327 327 328 328 329 330 331 332 334 335 336 337 339 339 339 339 339 338 338 337 337 339 338 337 336 336 337 337 337 337 336 336 336 334 333 333 331 330 329 327 327 327 326 323 322 321 317 311 307 306 303 302 304 308 311 312 312 313 312 312 311 312 313 314 314 315
315 316 318 318 316 316 315 316 318 318 317 316 315 317 318 317 314 316 321 321 320 318 317 317 322 331 330 330 329 325 325 326 326 327 327 327 328 328 328 330 332 334 336 337 338 339 339 338 338 338 337 337 338 339 338 337 337 337 338 338 338 337 336 336 335 333 333 332 330 329 328 327 328 328 325 323 322 319 313 309 308 305 302 304 307 310 311 311 311 311 311 310 311 311 313 314 314
317 319 318 318 317 315 315 316 316 317 317 316 317 318 318 317 315 318 322 319 316 319 319 316 324 334 328 328 328 324 324 325 326 326 326 326 326 327 327 328 329 331 333 335 336 337 338 338 337 337 337 337 338 339 339 338 338 337 337 338 337 337 337 336 336 334 334 333 331 329 329 328 328 328 327 325 323 321 317 312 310 306 303 305 308 309 310 310 309 310 310 310 310 310 311 313 314
318 320 317 317 318 315 315 316 315 316 316 316 318 317 317 316 316 319 318 316 315 320 321 316 322 327 322 325 326 322 322 323 325 325 325 326 326 327 327 328 327 328 330 331 333 335 336 336 337 336 336 336 337 339 338 338 338 337 337 338 337 337 337 337 336 335 335 334 332 330 330 329 329 328 328 328 326 323 320 315 311 308 306 306 308 309 309 309 309 310 310 309 309 309 310 312 313
317 320 319 318 321 320 316 316 316 316 315 317 317 314 315 317 318 318 316 316 316 317 320 319 319 319 317 320 322 321 320 321 323 323 324 325 325 326 326 325 325 326 325 325 329 332 333 334 334 335 335 335 336 337 338 338 337 337 337 337 336 336 337 337 337 336 335 335 333 331 330 330 330 330 329 329 328 325 322 318 314 311 309 307 308 309 310 311 311 310 310 309 309 309 310 311 313
317 319 321 321 321 322 316 315 317 316 316 317 314 312 318 320 317 316 315 315 315 315 318 318 318 318 316 316 318 319 317 315 319 322 324 324 324 325 325 322 324 326 324 325 328 328 329 330 331 332 333 334 334 336 337 337 337 336 337 337 336 336 336 336 336 336 336 336 335 332 331 331 331 331 330 330 328 326 323 320 317 314 312 309 308 310 312 313 313 311 310 308 308 309 309 311 312
318 314 322 324 317 321 321 316 317 315 315 316 312 313 320 322 318 315 315 315 316 317 318 317 317 316 315 315 315 316 315 312 315 319 322 322 322 323 323 322 324 326 327 328 328 328 328 329 330 331 332 333 333 334 336 337 336 336 336 337 336 336 336 335 334 334 335 336 335 334 333 332 331 331 331 330 328 327 324 322 319 317 314 311 309 311 314 314 313 312 310 309 308 308 309 310 311
324 314 322 324 314 325 328 317 318 317 315 315 313 315 320 320 319 317 315 315 315 318 320 318 317 316 315 315 314 314 313 311 312 315 318 320 321 321 321 321 323 326 327 327 328 330 330 330 331 331 331 332 332 333 334 335 336 335 336 336 336 336 336 335 334 333 334 335 335 335 334 333 332 332 331 330 328 327 326 324 322 320 316 313 312 314 315 315 313 312 310 310 309 308 309 310 310
329 318 320 324 316 322 325 316 318 319 316 316 313 316 320 318 317 318 316 315 315 318 321 319 318 318 317 316 314 314 313 311 310 310 314 317 319 320 319 319 320 322 324 327 329 330 331 331 331 332 332 332 332 332 333 333 334 335 336 335 335 335 335 335 334 334 333 333 333 335 335 334 333 332 331 330 329 327 326 325 324 322 317 315 316 316 316 315 314 312 309 309 311 310 308 308 307
324 318 319 324 320 319 321 320 318 317 317 317 315 316 320 319 319 320 319 316 317 318 321 322 321 319 319 317 315 314 313 314 312 310 311 315 317 318 319 319 319 320 322 325 329 330 331 331 331 332 332 332 332 333 332 332 333 334 336 335 335 334 333 333 332 333 334 333 333 333 334 335 334 333 331 330 330 328 327 326 325 323 319 315 316 317 316 315 314 313 310 307 309 311 309 306 305
321 319 319 320 318 318 322 321 317 316 317 317 317 317 320 321 318 319 318 314 316 319 320 321 320 320 320 317 316 314 313 314 312 310 311 313 315 317 318 319 319 320 321 324 327 330 330 331 332 332 332 332 332 332 332 332 333 334 335 334 334 333 332 331 331 331 333 334 334 334 334 335 334 334 332 331 330 329 327 327 326 324 322 318 317 317 316 314 312 311 311 307 306 308 308 306 304
324 325 328 326 320 318 321 319 316 316 317 318 320 318 318 319 316 317 317 313 314 318 319 317 317 317 316 315 315 315 315 315 312 310 312 313 313 315 316 318 319 320 320 322 326 329 329 331 332 332 332 332 332 332 332 332 332 333 333 333 333 332 332 331 331 331 332 333 333 334 334 334 335 334 334 332 330 330 328 326 325 323 322 320 317 316 315 315 313 311 310 308 305 303 303 303 302
324 324 328 327 322 319 318 318 317 315 315 319 319 318 318 318 316 316 315 312 312 315 317 317 316 315 314 315 315 315 316 315 311 311 312 312 313 314 315 316 318 320 321 322 325 327 328 330 330 331 332 331 331 331 331 332 331 331 331 332 332 331 331 331 331 332 332 332 332 332 332 333 334 334 333 333 331 330 329 327 325 323 321 319 318 317 316 315 314 312 309 307 305 302 299 299 299
324 324 325 322 319 319 316 317 319 315 314 318 319 318 317 316 315 314 312 311 313 314 315 315 315 314 314 315 315 315 315 314 313 312 312 313 314 313 314 315 317 319 321 322 324 325 327 329 329 330 331 331 331 331 331 331 331 330 330 330 330 330 330 330 331 332 332 332 332 332 332 331 332 333 333 332 332 331 330 327 326 325 323 321 319 317 315 314 312 311 309 305 302 302 300 297 298
328 325 322 319 318 317 316 318 319 316 315 319 323 320 316 315 315 314 313 312 313 313 312 314 314 314 315 315 315 314 314 316 316 313 311 311 313 313 313 314 315 318 320 321 322 324 327 328 329 329 329 330 330 330 330 330 330 330 329 329 328 328 328 329 330 330 331 331 331 331 331 330 330 331 332 332 332 332 331 330 328 327 326 323 321 318 315 313 310 309 309 306 301 300 299 297 298
329 325 320 320 322 318 316 318 318 315 314 316 322 320 317 317 318 318 315 311 312 314 314 314 314 315 316 316 315 315 316 316 316 316 313 310 311 313 312 313 314 316 318 320 322 324 326 327 328 329 329 329 329 329 329 329 329 328 328 328 327 327 327 327 327 327 328 329 330 330 330 331 331 331 332 332 332 331 331 331 330 329 328 326 322 319 315 313 311 310 307 306 303 299 297 296 298
323 334 332 323 323 321 317 319 319 316 316 319 320 318 321 325 327 329 320 312 314 316 315 316 317 317 315 316 316 315 315 315 316 318 316 310 309 312 313 313 314 315 317 319 320 322 324 325 327 328 329 329 329 329 328 328 328 327 327 326 325 325 324 324 324 325 325 326 327 328 329 329 330 330 331 332 332 332 331 331 331 330 328 327 323 318 316 314 314 313 308 306 305 304 300 296 296
316 329 332 323 326 327 321 323 323 318 317 318 316 315 323 330 329 329 322 314 315 315 314 318 321 319 315 315 315 313 314 317 318 318 317 310 309 311 313 313 313 314 316 317 318 320 321 323 325 326 327 328 328 328 327 327 326 326 326 324 323 322 322 322 322 323 324 324 325 326 327 328 328 329 330 330 331 332 331 331 330 327 326 327 323 319 318 315 314 314 311 308 307 307 305 298 295
313 318 324 327 334 329 321 321 318 319 317 314 317 318 318 320 318 319 318 317 320 317 318 321 317 315 315 313 314 314 315 320 323 323 323 316 310 311 312 313 313 314 315 316 317 318 320 321 322 323 324 325 326 326 326 326 325 325 324 324 323 322 321 321 322 322 322 323 323 325 325 327 327 327 328 329 330 331 330 329 329 327 326 326 325 322 320 317 315 314 312 310 307 306 306 301 297
314 318 326 331 332 326 328 327 318 321 319 318 328 325 316 317 314 314 317 317 321 322 322 321 315 313 315 314 314 316 319 325 328 332 334 321 311 311 313 313 314 315 315 315 316 317 318 319 319 320 321 322 323 323 324 324 324 324 324 323 323 322 322 321 321 320 320 321 322 323 324 325 325 326 327 328 328 329 329 329 328 327 327 326 326 325 324 321 317 314 310 308 306 305 306 306 302
319 321 327 329 330 332 339 338 328 324 317 320 331 320 314 325 319 314 318 316 318 323 322 319 316 316 318 319 318 319 324 328 329 333 334 319 310 312 314 314 315 315 315 315 316 317 317 318 318 319 320 320 321 321 321 322 322 322 322 322 321 321 320 320 319 318 318 319 319 320 321 322 322 323 324 324 325 326 327 327 326 325 325 325 325 325 325 323 319 315 311 307 305 305 306 306 305
320 321 324 326 329 333 336 336 327 320 316 322 329 317 313 323 321 317 315 314 321 325 321 320 321 323 327 333 333 333 336 334 330 330 322 312 312 314 313 314 315 315 315 315 316 316 316 317 318 318 318 319 319 319 320 320 320 320 320 320 320 319 318 318 318 317 317 317 317 317 318 318 319 319 320 320 320 320 321 321 321 320 321 322 323 323 322 320 318 315 312 310 308 307 306 307 307
318 325 326 325 329 332 337 336 324 313 318 326 326 319 313 315 324 324 314 313 320 320 321 323 325 328 331 336 340 342 344 341 336 333 319 309 312 315 313 314 315 314 315 315 315 315 316 316 316 317 317 317 318 318 318 318 318 318 318 318 318 318 317 317 316 316 315 315 315 315 315 316 316 316 317 317 317 316 316 318 319 319 319 321 322 323 322 321 319 315 312 311 310 309 309 308 307
322 331 329 321 325 329 332 334 323 313 322 326 321 319 315 313 324 326 318 317 317 316 320 322 322 326 328 330 337 342 344 343 342 339 326 316 314 314 313 314 314 314 315 314 315 315 314 314 314 315 315 315 316 317 317 318 317 318 318 317 317 317 317 316 316 316 315 315 315 315 314 314 314 314 314 314 313 314 315 317 320 320 320 321 322 322 323 322 320 316 313 312 311 309 309 308 305
323 324 325 318 320 321 321 326 323 319 320 319 318 319 316 315 319 319 319 320 319 320 321 321 321 321 323 330 340 343 341 343 345 340 335 331 321 312 312 314 314 314 314 314 314 314 313 313 313 314 314 314 315 315 316 317 317 317 317 317 317 316 316 316 316 316 315 315 315 314 314 313 313 313 313 312 311 312 314 315 317 319 320 320 321 321 321 320 318 316 315 314 313 312 310 307 305
318 318 321 320 320 318 317 321 319 318 319 316 317 318 318 321 318 315 317 315 317 322 321 324 327 324 327 337 344 344 340 342 345 339 340 338 319 308 311 314 314 314 314 314 314 313 313 313 312 313 313 313 314 315 316 316 316 317 317 317 317 316 316 316 316 315 315 315 314 314 313 313 313 312 312 312 311 311 313 315 315 317 319 319 320 320 319 318 317 317 316 315 315 313 310 306 305
319 319 316 318 325 323 321 322 319 320 322 318 314 317 324 324 314 313 318 314 314 317 319 323 326 329 334 334 335 341 341 344 344 340 341 329 309 307 312 312 313 314 314 314 314 313 313 313 313 312 312 313 313 314 315 315 316 316 316 316 316 316 316 316 316 315 314 314 313 313 313 312 312 312 312 311 311 310 312 314 315 316 317 317 318 319 319 318 317 317 316 315 314 311 308 306 305
319 317 313 315 322 323 319 318 321 322 320 318 316 321 327 321 313 314 318 317 314 312 314 318 318 323 329 327 328 336 340 345 345 344 348 330 308 307 312 310 312 313 312 314 313 313 313 313 313 312 312 313 313 313 314 315 315 315 316 316 315 316 315 315 315 314 314 313 313 312 312 312 312 311 311 311 311 310 311 313 315 316 316 317 318 319 318 318 317 316 315 313 312 311 309 307 307
318 316 318 318 318 323 320 314 316 316 313 317 318 321 325 317 314 317 314 316 318 313 315 319 316 314 316 320 326 333 339 345 344 343 348 330 309 308 312 312 313 313 312 313 313 312 313 312 313 312 312 313 313 313 314 314 315 315 315 315 315 315 315 314 314 313 313 313 312 312 311 311 311 311 311 311 311 311 311 312 314 316 317 317 318 318 318 317 316 315 315 313 313 312 310 308 307
320 320 322 317 313 321 324 317 321 319 315 320 318 317 321 317 316 318 313 312 315 313 316 321 320 316 315 319 323 326 333 339 341 343 339 320 306 309 313 313 314 314 313 313 312 312 312 311 312 312 312 312 312 313 313 313 314 314 314 314 314 314 314 314 314 313 312 312 311 311 311 311 311 311 311 312 312 311 311 312 313 314 316 317 317 317 317 317 315 314 314 313 313 312 310 308 307
320 322 320 318 319 323 320 316 321 320 316 322 321 315 316 315 315 316 312 313 315 314 317 321 322 320 318 319 322 328 333 333 336 345 345 324 308 310 314 314 315 315 315 315 313 313 312 311 312 311 311 312 312 312 312 313 313 313 314 314 313 314 313 313 313 312 312 312 311 311 311 311 311 311 312 312 312 311 310 311 312 313 314 315 315 315 315 315 314 313 313 312 312 311 309 307 307
316 316 314 319 324 325 322 317 318 318 317 320 321 316 316 316 316 315 313 316 318 316 316 318 320 321 319 317 322 331 337 338 338 339 341 324 309 310 315 315 316 316 315 316 315 314 313 312 312 311 311 311 311 312 312 312 313 312 313 313 313 313 312 312 312 312 311 311 311 310 310 310 311 311 311 311 311 310 310 310 310 311 312 313 313 313 313 313 312 312 312 311 311 310 308 307 307
317 318 316 318 319 319 322 319 317 319 321 321 318 315 319 319 315 314 315 317 319 318 317 318 319 319 319 319 322 330 336 340 336 330 331 319 308 312 316 314 315 315 315 315 314 314 314 313 312 311 311 311 311 311 311 311 312 312 312 312 312 312 312 312 311 311 311 310 310 310 310 310 311 311 311 311 310 309 310 310 309 310 312 312 313 313 312 311 310 310 310 310 310 309 308 307 306
317 317 317 318 318 318 319 318 316 317 319 322 318 313 317 318 313 313 317 317 319 322 321 319 317 316 316 318 323 330 331 331 326 325 331 321 309 310 313 313 314 314 313 313 313 313 312 312 312 311 311 311 311 311 311 311 311 311 311 311 312 312 311 311 311 310 310 310 309 309 309 309 310 310 310 310 310 309 309 309 310 311 311 311 311 311 311 309 308 308 309 309 309 308 307 306 305
Wind_Speed
7 3 0 1 1 1 1 4 2 2 3 3 0 1 1 2 2 4 3 0 2 2 2 2 3 3 4 5 8 7 3 2 3 4 2 4 19 25 18 18 20 20 20 19 17 16 16 15 14 14 14 13 14 15 14 14 13 12 12 13 13 13 15 16 17 18 18 17 17 17 17 17 17 17 17 15 14 13 15 15 14 15 17 17 16 17 20 21 21 20 20 22 23 22 21 22 23
5 2 0 1 2 2 1 3 3 3 5 3 1 2 1 2 3 6 5 3 3 3 1 4 7 8 7 7 7 4 3 3 2 4 0 11 23 21 17 19 21 21 21 19 17 17 16 15 14 14 14 14 14 15 14 14 12 12 12 12 12 13 14 15 17 18 18 17 17 17 16 17 17 17 16 14 14 13 14 15 15 15 15 16 16 18 20 21 21 20 21 23 23 23 23 23 23
3 1 2 1 1 3 1 4 3 2 4 2 2 2 1 3 5 6 6 5 6 4 4 5 7 6 5 5 3 3 1 4 1 3 4 16 18 16 19 19 20 20 20 19 17 17 16 15 15 15 14 14 15 15 14 13 12 12 12 12 11 12 13 14 16 17 17 17 16 16 16 16 17 17 15 13 13 13 14 16 16 15 14 15 17 19 21 21 21 21 21 22 23 24 24 23 23
3 1 3 1 1 4 3 4 2 4 4 3 2 3 1 6 7 6 5 5 3 2 3 3 4 2 4 5 2 3 2 1 2 3 6 14 15 19 21 19 20 20 20 19 17 16 16 16 16 16 15 15 15 15 14 12 12 12 12 11 11 12 13 14 15 16 15 15 16 16 16 16 16 17 14 13 15 16 16 16 16 15 14 16 18 19 21 21 21 20 20 21 21 23 24 23 23
2 1 2 3 2 1 3 3 2 5 3 4 3 4 4 6 7 5 3 4 3 2 3 4 3 1 3 4 2 2 3 2 3 5 8 13 18 23 21 20 21 20 20 18 17 16 16 16 16 16 15 15 15 14 13 12 12 12 11 11 10 11 12 13 14 15 14 14 15 15 16 16 16 16 14 14 16 17 17 17 16 15 15 16 18 20 21 21 20 19 19 20 20 21 22 22 22
2 3 3 4 2 1 2 3 3 1 4 5 4 4 6 6 7 6 2 2 2 2 2 4 3 2 3 1 1 3 3 3 5 8 12 17 21 23 22 20 20 20 19 17 18 17 16 16 16 17 16 15 14 14 13 12 12 11 11 10 10 10 11 12 13 14 14 14 14 15 15 15 15 15 14 14 14 14 16 17 16 16 16 16 19 20 21 21 20 20 19 20 19 19 20 20 21
2 2 3 4 2 2 3 3 4 2 2 5 6 6 7 6 6 7 4 3 1 2 2 3 5 6 2 1 1 2 2 3 7 12 18 23 23 22 21 19 19 20 19 17 18 17 17 17 17 17 16 15 14 14 13 12 11 11 10 9 9 9 10 11 12 13 13 14 14 14 15 15 15 14 14 14 13 13 14 15 16 17 16 16 19 20 21 20 19 19 19 19 19 19 20 20 21
1 1 1 4 2 3 4 2 2 2 1 2 4 6 9 8 7 7 4 3 2 1 3 2 4 6 1 1 2 4 1 6 9 17 24 26 24 22 20 19 20 21 18 17 17 17 17 17 17 17 16 16 14 14 13 13 12 11 10 10 10 9 9 10 11 11 12 13 14 14 14 14 13 12 13 13 12 13 14 14 16 16 14 16 20 20 20 19 18 18 18 19 19 19 20 21 20
2 2 1 3 2 3 3 1 0 2 0 1 3 4 7 8 6 6 4 1 2 2 2 4 4 5 1 4 1 5 1 9 14 22 27 26 24 23 21 20 21 22 19 17 17 17 17 16 16 16 17 16 15 15 14 13 13 12 11 10 10 9 9 9 10 10 11 12 13 14 15 14 11 10 11 12 13 13 13 14 15 14 13 16 19 19 19 18 18 18 18 19 19 18 19 19 19
3 3 2 2 2 3 2 1 0 1 1 2 3 5 7 7 5 5 5 3 2 3 1 2 4 5 4 3 1 3 2 13 19 24 27 26 24 24 22 20 19 21 20 18 18 18 17 17 16 16 16 16 15 15 15 14 13 13 11 11 11 10 9 9 9 10 11 11 12 15 16 14 11 10 11 12 13 13 13 13 13 13 13 16 19 19 18 18 17 17 19 20 19 18 18 18 18
3 4 3 3 3 2 2 3 2 2 1 1 2 5 7 6 6 4 5 4 1 3 2 1 4 5 4 1 2 2 7 16 21 26 28 26 24 24 23 20 18 18 19 18 18 19 18 17 16 15 15 15 14 14 15 15 14 14 12 11 11 10 9 9 9 9 10 11 12 15 17 15 12 12 13 12 12 12 11 11 11 12 12 16 20 19 18 18 18 18 19 19 19 18 18 18 18
3 3 4 4 2 3 4 4 3 3 3 1 3 5 4 6 7 5 5 5 2 2 3 1 5 5 4 1 3 1 9 16 22 27 28 26 25 23 21 20 19 17 18 17 17 19 19 18 17 16 15 14 14 14 15 16 15 14 12 12 11 10 9 9 9 9 9 10 11 14 16 16 15 14 14 13 13 12 11 11 12 12 13 16 20 19 17 18 18 19 20 20 19 19 19 19 19
3 2 5 2 3 3 4 4 3 0 3 3 4 3 4 6 6 8 8 6 4 3 3 4 6 6 3 1 2 1 8 16 22 26 27 26 25 20 20 21 19 18 18 17 17 19 20 19 18 17 16 15 13 14 16 16 16 14 12 12 11 10 9 9 8 9 9 9 11 12 14 15 15 15 14 14 14 13 12 13 14 13 13 16 19 19 17 18 19 19 20 20 21 20 19 19 19
3 3 5 2 0 3 5 3 2 3 2 6 3 2 4 3 5 8 8 6 5 5 2 3 6 6 3 1 1 3 9 18 23 26 26 26 25 18 18 22 21 20 19 18 17 19 21 19 19 19 17 16 14 14 17 18 16 15 13 12 12 10 10 9 9 9 8 9 9 11 13 14 15 15 13 13 14 14 13 14 15 15 15 16 18 18 17 18 19 19 19 20 21 20 19 19 19
3 2 4 3 1 1 3 2 3 5 4 5 3 3 4 1 4 6 7 8 5 5 1 1 4 2 3 5 4 8 16 23 25 26 26 25 23 16 17 24 23 21 20 19 18 20 22 21 21 20 19 18 15 16 18 19 17 16 14 13 12 12 11 10 9 9 9 9 9 10 12 13 14 12 11 11 13 14 14 15 16 16 16 16 17 18 17 18 18 18 18 19 19 19 18 18 17
3 3 5 2 0 1 3 2 3 4 4 5 2 3 5 2 3 4 5 7 3 2 2 1 1 1 6 8 6 16 24 25 26 25 25 23 18 15 20 25 24 22 21 20 19 21 24 23 22 21 20 19 17 17 19 20 19 17 15 14 13 13 12 11 10 9 9 9 9 10 11 12 13 11 10 10 11 13 15 17 17 17 17 16 18 19 18 19 18 17 17 17 17 17 17 17 16
3 4 4 2 1 1 3 3 4 3 4 4 3 3 6 2 1 1 1 6 5 2 4 1 3 4 3 4 5 23 29 26 27 24 22 21 17 18 23 25 25 23 23 21 20 22 25 24 23 23 22 21 19 18 19 21 20 18 17 16 15 14 13 12 11 10 10 10 10 11 11 12 12 11 11 10 11 13 15 17 17 17 17 17 18 18 19 21 19 17 17 17 16 16 16 16 16
4 3 3 2 3 2 4 6 6 3 4 6 5 5 8 4 1 1 2 6 4 4 5 3 5 7 3 0 13 28 30 27 27 24 22 20 19 20 23 25 25 25 25 23 22 23 25 25 24 24 23 22 21 20 20 21 21 20 18 18 17 16 15 14 13 12 12 11 11 11 12 12 12 12 12 11 12 13 14 14 15 16 16 17 17 16 20 22 18 17 17 17 16 16 16 16 16
3 3 3 3 5 3 4 5 5 3 4 7 5 5 6 6 4 2 2 1 2 5 3 4 5 6 6 8 21 28 28 28 26 25 24 22 22 21 22 24 25 26 26 26 24 23 24 25 25 24 24 23 22 22 21 22 22 21 20 20 19 18 17 16 15 14 13 13 12 12 12 13 13 13 13 12 12 13 14 13 13 15 15 17 16 17 21 21 18 18 17 17 17 16 16 17 17
2 4 3 5 6 3 3 4 4 5 5 8 5 4 3 4 5 2 4 4 3 4 3 1 1 2 3 7 17 25 25 25 25 24 23 23 23 23 23 25 26 28 29 28 27 24 24 25 26 26 25 24 24 23 23 23 23 22 22 21 21 20 19 18 17 16 15 14 14 14 13 14 14 14 14 13 12 13 14 14 14 14 15 16 16 19 22 21 19 19 17 17 17 17 17 16 17
2 4 4 6 4 2 3 2 2 3 4 8 5 4 2 4 4 3 6 6 3 6 7 8 9 9 9 7 13 21 21 21 22 22 22 22 23 23 25 27 28 29 30 28 27 27 26 25 26 26 26 26 25 25 25 25 24 24 23 23 22 22 21 20 19 18 17 16 16 15 15 15 15 15 15 14 13 14 15 16 16 16 16 16 17 20 22 21 20 19 18 17 17 17 16 16 16
2 0 5 5 5 3 3 3 3 1 5 5 6 6 4 3 2 4 9 7 6 7 8 11 11 13 15 13 15 17 17 19 20 21 22 23 24 25 26 26 26 26 27 29 29 29 27 27 26 26 26 27 27 27 27 26 26 26 25 25 24 23 23 22 21 20 19 18 17 17 17 17 16 16 15 15 14 14 15 17 17 17 17 18 19 21 22 21 21 20 18 17 17 16 16 16 15
3 2 2 2 4 3 2 1 3 1 7 6 6 4 3 5 0 3 8 8 7 7 9 10 9 16 19 17 16 14 14 17 20 24 26 27 28 28 29 28 28 28 29 31 31 30 29 29 28 27 27 27 28 28 27 27 27 27 27 26 26 25 25 24 23 22 22 21 20 19 19 19 18 18 17 16 16 15 16 17 18 18 18 19 20 21 21 22 21 21 19 18 17 16 16 15 14
5 2 1 0 2 3 1 1 2 3 7 5 4 2 3 6 2 1 5 8 8 7 3 4 10 17 18 15 14 15 16 20 24 29 31 32 34 34 34 32 31 31 31 32 32 32 32 31 30 29 28 28 28 29 29 28 28 28 27 27 27 27 27 26 25 24 24 23 22 21 21 20 19 19 19 18 17 17 17 18 18 19 19 20 21 21 21 22 21 21 20 18 17 16 16 15 15
4 4 2 1 1 0 1 2 4 4 3 1 4 3 3 5 3 0 6 9 8 5 3 5 11 14 14 13 14 13 15 19 22 25 28 31 32 31 30 30 30 29 31 33 33 34 34 33 32 31 30 30 29 30 30 29 29 28 28 29 29 29 29 28 26 25 25 25 24 24 23 22 21 20 20 19 18 18 18 19 19 20 20 21 22 22 21 21 21 21 20 19 18 17 16 16 16
3 5 4 3 0 1 1 3 3 2 1 2 4 1 5 3 1 3 8 9 5 2 6 6 10 11 11 12 13 14 13 17 21 23 27 28 26 25 27 29 30 31 34 34 35 36 36 35 34 33 32 32 31 31 31 31 30 29 30 30 30 31 31 30 27 26 26 27 27 26 25 24 22 21 20 20 19 19 20 20 21 21 21 22 23 23 22 21 21 21 21 19 18 17 16 16 17
3 6 5 5 1 1 1 1 0 1 1 1 4 3 6 4 2 4 8 4 5 6 5 5 9 10 12 10 12 15 15 19 25 24 22 22 23 26 29 29 32 35 34 34 37 38 36 36 37 36 34 33 33 33 33 33 32 31 31 31 31 31 31 31 30 28 27 29 30 28 27 25 23 22 20 20 20 20 21 22 22 22 23 24 24 23 22 21 20 20 20 19 18 18 17 17 18
6 8 5 5 5 2 1 3 2 1 1 2 6 1 5 5 1 7 6 1 6 8 6 6 7 8 10 10 10 12 15 22 24 20 20 23 28 31 32 34 36 36 35 37 39 38 37 38 38 37 37 36 35 35 34 34 33 32 32 31 31 31 31 31 32 31 30 30 31 30 29 28 26 24 22 21 21 22 22 23 24 24 25 25 25 24 23 21 20 19 18 18 18 18 18 19 19
5 7 5 5 8 3 2 1 2 1 2 3 5 1 4 2 7 8 2 2 5 7 7 7 7 7 7 8 7 8 14 18 17 19 25 30 34 35 36 38 39 37 38 39 38 37 38 38 38 38 37 38 38 37 36 35 34 33 32 33 31 31 31 31 33 33 32 32 32 33 31 30 29 28 26 24 23 24 24 24 25 25 26 26 26 25 23 22 20 20 19 19 19 19 20 20 20
3 4 5 2 7 4 5 1 0 2 2 2 4 1 6 7 12 7 4 2 4 6 8 7 7 6 6 7 6 8 12 14 16 24 31 32 34 34 36 38 38 38 38 36 36 37 38 37 37 37 36 38 39 38 38 37 36 34 34 33 32 31 31 32 32 33 33 33 34 35 33 32 31 31 30 28 27 26 25 26 26 26 27 27 28 26 24 23 22 22 21 21 21 21 21 21 22
2 2 3 3 2 3 7 2 3 4 1 3 6 2 6 9 11 9 7 3 7 7 8 7 7 6 6 6 7 8 10 16 22 28 32 33 34 34 36 37 36 37 36 36 37 37 37 37 37 37 37 38 39 39 39 38 37 36 34 34 33 31 31 32 32 32 33 34 36 36 35 34 33 33 32 32 30 28 27 27 27 27 28 29 29 27 25 24 23 23 24 24 23 22 22 22 22
3 2 2 3 2 4 8 2 5 6 1 4 7 2 6 8 10 8 6 2 7 7 7 7 7 7 7 6 7 8 10 16 23 27 30 33 33 33 35 36 35 36 37 37 37 37 37 37 37 37 37 38 39 39 39 39 38 36 35 34 33 32 32 33 33 33 33 34 35 36 36 36 35 35 34 33 33 31 29 29 29 29 29 30 30 28 27 26 25 25 25 26 25 25 24 23 23
4 3 2 2 2 2 5 2 2 3 1 2 2 3 4 4 6 7 5 3 4 5 7 7 7 8 8 7 7 8 9 11 15 23 30 32 34 35 36 36 36 36 38 38 37 37 37 37 37 38 37 38 38 39 39 39 38 37 36 34 33 33 33 34 34 34 33 33 34 35 36 37 37 37 35 35 34 34 33 32 32 32 32 33 32 31 30 29 28 28 28 27 27 27 26 25 25
3 2 1 3 3 2 2 3 3 2 2 1 0 2 6 6 7 9 6 3 2 4 7 8 7 7 7 7 7 8 9 9 11 20 30 34 35 36 36 36 35 35 37 38 37 38 38 37 38 38 37 37 37 38 38 37 38 37 36 35 34 34 34 34 33 34 35 35 34 34 35 37 38 37 36 36 36 35 34 33 34 34 34 35 35 34 33 32 31 30 30 30 29 28 28 28 27
5 3 2 2 2 3 3 3 2 2 1 2 1 3 9 11 10 10 9 2 2 7 8 7 8 8 8 7 8 8 9 11 13 21 30 33 35 36 35 35 34 34 35 37 37 37 37 37 37 38 38 37 37 37 37 37 37 37 36 35 35 35 35 35 34 34 36 36 35 34 34 36 37 37 37 37 37 37 36 36 37 37 37 37 37 36 35 35 33 32 32 32 30 28 29 29 28
9 6 5 4 3 4 4 4 4 1 2 3 5 6 8 10 10 10 11 5 4 8 8 7 8 8 8 8 8 9 9 12 16 21 26 28 32 34 35 35 34 34 34 35 36 36 36 36 36 37 38 37 37 37 36 37 37 37 36 36 37 38 38 37 36 36 36 37 37 36 35 36 37 37 37 38 38 38 38 39 39 40 39 40 40 39 38 38 37 35 34 34 32 28 28 29 29
7 6 5 4 4 2 4 3 4 1 3 5 5 5 8 10 11 11 10 6 4 8 9 10 10 9 9 9 10 11 11 12 13 15 20 24 28 31 32 32 31 31 31 33 34 36 37 37 37 38 38 37 37 38 38 38 38 37 37 39 41 40 39 38 38 38 37 37 37 36 37 37 37 38 37 38 40 40 40 40 40 40 40 40 41 40 40 40 39 38 36 34 33 32 30 29 30
6 6 5 2 2 2 3 2 4 2 2 4 3 4 10 10 11 11 8 7 7 10 11 11 12 10 8 9 12 12 10 10 9 10 15 19 23 27 29 29 29 30 31 33 34 36 37 37 38 39 38 38 38 39 39 40 41 40 39 39 40 39 38 38 38 39 38 37 36 36 36 36 37 38 38 38 40 41 41 40 40 40 39 40 40 40 39 39 39 39 38 35 32 32 32 32 34
5 4 5 2 2 2 3 4 5 3 1 4 5 6 10 10 10 12 10 9 9 9 10 10 11 9 9 10 11 11 10 10 10 10 12 17 21 23 25 27 30 32 32 33 34 34 35 36 37 38 38 38 39 40 40 40 41 40 38 35 34 34 34 36 36 36 36 36 36 36 36 36 36 37 38 40 42 43 43 43 42 40 39 40 41 41 40 39 40 39 40 38 33 31 30 33 37
4 4 4 2 2 1 2 4 4 3 1 2 4 6 9 7 6 10 9 7 7 7 8 9 9 9 12 11 10 10 12 12 10 9 10 14 17 18 22 26 29 31 30 30 32 33 34 36 37 38 38 38 39 39 40 39 38 36 35 32 30 30 30 31 32 33 35 36 37 37 37 36 36 36 38 40 42 43 44 44 43 41 41 42 43 44 43 42 42 40 40 39 37 33 30 33 38
1 3 5 3 3 3 2 2 2 3 4 3 4 6 7 5 4 6 6 3 5 5 5 8 9 10 11 11 11 11 10 10 9 10 9 10 14 18 22 25 26 28 29 31 33 34 36 37 37 38 38 38 38 38 38 37 36 34 33 30 27 26 27 27 29 32 34 35 37 38 38 37 36 36 37 37 37 37 39 41 41 43 45 45 44 44 44 44 44 44 43 41 41 39 34 34 37
2 2 6 7 6 5 2 2 4 4 4 4 5 4 6 5 4 7 6 6 6 4 3 8 10 9 9 10 11 10 7 7 8 9 8 8 13 17 19 21 23 27 31 33 34 34 35 35 36 36 37 37 37 37 37 36 35 34 33 31 28 26 26 28 31 34 34 35 36 36 37 37 36 36 36 36 36 36 38 40 40 41 44 45 45 44 43 43 44 46 46 45 44 43 38 35 37
1 4 6 7 7 7 4 2 3 1 3 3 4 3 5 7 5 8 5 6 8 7 7 11 9 7 7 8 9 7 6 7 7 8 8 8 11 13 16 20 23 27 31 32 31 31 32 33 33 34 35 36 36 36 35 35 35 34 34 34 33 32 31 33 35 34 34 35 34 35 35 36 36 37 37 37 37 36 35 35 35 36 39 41 43 42 41 42 44 46 47 49 47 44 40 37 40
3 4 7 8 7 7 5 5 3 2 3 4 4 4 2 6 5 5 2 3 9 10 11 11 8 7 8 8 8 7 7 7 6 7 7 7 10 13 16 20 23 26 27 27 28 29 30 30 31 32 33 34 34 34 34 35 35 35 35 36 36 36 36 36 35 33 33 33 33 35 35 37 37 38 39 38 38 38 36 33 32 34 37 38 40 41 40 40 45 46 45 46 45 43 43 42 41
4 4 7 6 7 7 5 6 3 1 2 4 5 2 2 7 6 2 2 3 8 9 10 11 9 8 8 7 8 8 8 7 5 6 7 7 11 14 16 17 20 23 23 24 26 27 28 28 29 30 30 31 32 32 32 34 35 36 37 37 37 38 37 36 33 31 31 31 32 35 35 36 37 38 39 39 39 40 40 39 37 36 36 37 39 42 43 44 47 48 46 46 44 43 45 42 39
3 6 7 5 6 6 5 5 3 3 2 4 6 3 2 6 7 4 3 2 6 8 8 8 8 8 6 6 7 7 6 4 3 4 6 7 10 12 12 13 16 19 21 22 23 24 25 26 27 28 29 29 29 30 31 32 34 35 36 38 38 37 36 34 32 30 30 30 31 33 33 34 35 36 37 37 39 39 40 41 42 41 41 40 40 39 40 43 46 47 48 50 48 46 45 44 42
6 7 7 6 6 5 4 3 4 2 3 6 7 4 2 4 7 4 2 3 5 4 6 7 7 7 5 4 5 6 5 5 4 3 3 4 4 6 8 11 13 14 17 20 20 22 23 24 25 27 27 28 28 29 30 32 33 34 36 37 38 37 35 33 32 31 31 30 31 32 32 33 34 35 36 36 37 37 36 38 40 42 44 44 44 41 40 41 44 45 46 47 48 48 47 46 44
6 5 5 4 4 4 4 4 3 1 5 6 5 2 4 4 7 4 4 6 5 3 4 5 4 6 6 5 5 6 5 5 5 4 4 4 3 3 6 9 10 11 15 18 20 21 21 22 23 25 26 27 28 29 30 31 32 34 36 37 37 36 35 34 34 34 34 33 33 33 33 33 33 35 35 35 36 35 36 37 36 37 41 42 43 42 42 42 44 45 45 45 46 46 45 44 44
6 5 6 4 2 3 2 3 0 3 6 4 2 1 3 6 7 7 9 9 7 7 7 5 1 2 5 6 6 5 5 5 5 5 5 4 4 4 5 7 9 10 13 15 18 19 20 20 21 23 26 27 27 28 29 31 32 34 35 36 37 36 35 36 36 36 36 35 35 35 34 35 35 35 35 35 35 34 36 39 37 35 35 37 38 38 39 41 42 42 43 44 45 45 45 44 44
4 5 6 4 3 1 3 4 2 4 4 3 2 1 3 4 4 10 13 7 5 7 6 5 4 4 6 6 6 5 5 5 5 5 5 5 6 7 8 9 10 11 13 14 16 17 18 19 21 23 26 26 27 28 29 31 33 34 35 35 36 35 36 36 37 37 37 36 36 36 36 36 35 35 35 34 33 32 34 38 39 37 35 34 35 36 36 37 39 40 41 42 44 45 45 43 43
3 4 6 5 5 5 4 4 3 4 3 3 3 1 3 2 2 7 10 5 2 4 6 6 6 6 6 5 6 6 6 6 5 5 5 6 8 10 10 11 12 13 14 14 15 16 18 19 21 24 26 26 27 28 30 31 33 33 34 34 35 35 36 36 37 37 37 36 36 35 35 35 35 35 34 33 31 31 34 36 38 39 39 36 35 35 35 36 37 38 40 41 42 43 42 42 42
2 2 5 3 5 5 2 3 5 3 1 2 2 3 4 4 5 8 7 6 4 4 5 5 6 8 6 5 6 6 6 6 6 5 6 8 9 10 11 12 13 14 15 16 17 18 20 21 21 24 26 26 27 28 30 31 32 32 33 34 34 35 36 36 37 37 36 35 35 34 34 34 34 34 33 32 30 28 31 35 37 39 40 40 39 38 37 37 38 38 39 40 41 41 41 42 43
2 2 3 5 4 7 4 2 0 3 2 4 2 4 5 4 7 8 5 7 7 4 5 5 6 4 1 4 6 6 6 6 6 5 6 8 10 11 12 13 14 15 16 18 19 20 21 21 22 23 25 26 28 29 30 30 31 32 33 33 34 35 36 37 36 36 34 34 33 34 34 33 34 33 32 31 28 26 28 33 37 38 38 39 40 39 38 38 38 38 39 40 41 42 42 43 43
5 3 6 3 2 4 4 1 3 3 3 5 1 5 5 2 5 5 3 5 8 7 6 6 4 2 3 3 6 5 6 6 6 6 6 8 11 14 14 14 15 16 17 19 20 20 21 22 23 24 26 27 28 29 30 30 31 32 33 34 35 35 36 35 35 34 33 33 33 34 33 34 33 32 32 30 28 25 26 30 34 36 37 38 38 37 37 37 38 38 39 40 41 41 41 41 41
5 4 4 4 2 1 2 2 2 1 3 5 4 4 4 5 6 3 0 7 8 5 6 7 7 4 2 1 3 3 3 3 4 6 5 6 11 14 13 12 13 14 15 18 19 20 22 24 25 25 27 27 27 28 29 30 31 32 33 34 34 34 34 34 33 33 32 33 34 34 33 33 32 31 31 30 28 26 26 28 32 34 35 36 38 38 38 38 38 38 39 40 40 40 39 39 40
3 1 2 3 2 4 3 3 3 3 3 3 4 4 3 6 7 6 7 8 8 5 2 3 5 5 3 3 5 5 4 3 4 5 5 6 10 11 8 9 11 11 13 15 17 19 22 24 26 27 27 27 27 28 29 30 31 32 33 34 33 33 33 33 33 32 33 34 34 33 33 32 32 31 30 30 28 28 28 28 30 32 33 34 36 37 38 38 38 38 39 39 39 38 38 38 39
3 3 4 2 1 2 2 1 3 4 4 3 3 5 6 5 4 8 10 9 8 7 5 4 6 6 4 4 6 5 5 5 5 5 5 7 7 8 8 8 9 9 12 14 15 18 20 22 25 26 26 26 27 28 28 30 31 31 32 33 33 33 32 32 33 33 33 34 33 33 33 32 32 31 31 30 30 29 29 29 31 34 34 34 35 37 38 38 37 37 38 38 37 37 37 38 38
7 7 8 7 5 4 3 3 2 2 3 4 3 5 8 5 4 6 8 7 6 6 6 4 3 2 2 4 4 4 4 5 5 5 5 5 9 13 13 11 10 10 13 14 14 16 18 20 21 23 24 24 26 27 27 29 30 30 32 33 33 33 33 32 32 33 34 34 33 33 32 32 33 33 32 32 31 31 30 31 33 35 35 34 35 36 37 37 37 37 37 37 36 36 36 36 36
Wind_Direction
313 319 244 104 17 60 72 72 67 322 76 93 52 98 163 194 162 121 137 144 49 301 277 5 33 87 107 119 140 139 118 146 172 144 214 197 147 153 161 162 162 159 158 160 162 156 151 149 147 144 142 140 135 130 122 115 112 108 101 95 87 78 73 74 79 83 91 93 93 94 95 97 97 98 96 100 104 100 95 89 85 83 80 79 81 84 93 95 95 97 97 100 99 97 96 99 100
324 340 75 102 10 56 205 71 93 337 54 91 294 138 170 352 93 145 184 184 174 206 172 86 70 73 87 108 125 103 48 338 184 152 136 142 143 153 161 163 163 159 159 160 161 157 152 150 147 143 142 140 136 132 122 117 117 111 103 97 89 80 76 75 81 85 91 95 95 96 97 98 98 98 99 104 105 99 94 89 84 82 81 83 85 87 95 99 98 99 98 99 98 95 95 100 101
345 78 68 159 6 53 67 43 89 60 75 126 261 250 128 93 143 189 213 196 187 159 123 107 80 80 85 66 49 76 59 321 130 101 109 142 145 158 165 166 165 162 160 159 160 159 155 152 147 143 142 141 138 132 123 121 121 115 109 99 92 83 79 78 83 88 90 94 96 98 99 99 99 100 103 104 99 97 96 90 85 81 81 87 90 93 98 100 101 100 98 98 98 97 95 98 100
10 98 46 85 46 37 56 48 117 115 115 170 194 263 204 147 172 207 224 220 222 137 143 121 69 65 100 95 80 84 135 285 120 104 137 161 159 161 167 168 166 164 161 159 160 159 156 153 147 144 143 143 139 132 126 128 127 121 112 101 96 88 83 81 84 90 90 93 97 100 101 102 102 102 103 100 96 96 95 92 90 85 85 92 94 98 101 102 104 102 100 100 100 100 98 98 99
26 86 27 54 74 46 81 74 97 104 162 179 151 252 230 174 172 190 236 262 276 238 184 112 80 314 80 113 140 118 172 149 148 143 144 167 163 162 169 166 165 164 161 159 160 159 157 152 147 145 143 142 140 135 132 133 131 123 112 104 99 92 86 83 85 91 94 97 99 102 103 103 104 105 103 98 98 99 98 98 96 92 93 94 94 101 104 104 105 102 101 103 102 103 104 102 103
37 91 46 50 82 138 91 83 100 115 207 165 145 225 216 193 177 170 192 241 278 253 171 97 123 132 64 1 61 139 195 139 153 163 149 157 159 163 168 163 165 165 162 161 161 160 156 153 149 146 143 144 141 137 137 137 133 122 113 107 101 95 90 86 87 92 98 103 103 105 105 104 106 108 107 101 101 104 104 105 102 99 98 95 96 103 107 106 106 102 102 103 102 105 108 108 109
21 82 34 53 38 37 91 127 153 188 211 166 162 174 189 208 185 148 142 163 1 345 54 94 134 111 75 302 68 354 275 183 158 161 154 153 155 159 162 162 165 164 162 162 162 161 158 157 154 150 146 147 146 143 141 141 137 125 120 113 107 102 96 91 90 95 101 106 107 108 106 105 110 115 117 115 109 105 106 109 106 101 100 98 100 105 108 109 109 105 103 104 104 107 109 111 114
11 80 33 82 38 26 96 121 195 186 79 171 171 167 181 191 174 143 145 153 138 338 55 129 131 99 337 42 106 317 313 177 161 155 153 151 156 158 159 162 165 164 164 164 165 164 161 161 159 156 153 154 152 149 147 147 142 132 127 121 117 112 105 101 97 99 104 110 112 112 109 107 116 121 122 119 110 105 109 111 105 102 101 101 103 107 108 109 110 106 104 106 107 107 108 112 115
32 60 46 78 77 23 67 63 272 199 271 153 148 177 181 178 168 136 131 144 160 155 119 182 135 109 188 52 89 296 75 162 157 153 153 153 159 159 161 165 164 162 164 166 168 168 165 165 162 159 159 161 159 156 154 152 148 140 136 132 128 124 117 111 105 104 106 113 117 118 114 110 117 122 119 113 106 108 115 111 105 104 101 102 106 107 108 108 108 105 105 109 110 107 107 110 112
29 37 92 72 82 43 34 152 244 185 213 198 191 186 173 176 165 128 123 141 154 129 198 201 89 108 137 92 207 292 153 156 155 157 157 156 158 159 165 170 168 163 165 168 171 172 169 169 167 163 162 163 164 164 160 156 154 148 146 145 141 136 128 120 115 109 110 115 120 126 121 114 118 119 115 112 108 109 112 110 106 102 100 107 108 107 108 107 105 104 106 113 114 108 108 111 111
31 353 94 75 67 98 176 187 257 259 249 257 237 207 182 167 129 107 109 124 146 122 189 10 90 123 98 110 250 257 164 157 160 164 161 158 159 163 168 173 175 170 169 170 173 176 173 173 173 169 167 166 168 170 165 161 160 156 154 153 150 145 137 131 126 118 118 119 123 131 130 123 121 119 116 115 115 114 113 112 109 102 102 113 112 109 111 111 106 104 108 114 114 110 111 115 115
80 331 69 83 138 176 184 161 204 256 299 208 185 235 190 137 118 130 132 138 168 135 210 199 142 139 77 328 276 205 165 161 164 164 164 161 160 167 172 175 179 180 177 175 175 177 177 176 176 175 173 172 171 173 171 166 165 163 160 160 157 153 145 140 136 128 126 124 125 134 139 136 129 126 124 124 124 121 116 111 111 109 109 117 116 113 114 114 110 109 112 113 116 118 116 117 118
111 155 85 100 204 151 138 138 192 195 319 229 190 222 147 134 155 168 151 138 149 133 231 210 142 109 88 273 291 201 183 171 163 162 166 164 163 168 175 178 181 185 184 181 180 180 180 178 178 179 177 176 174 174 175 171 169 168 167 166 163 161 155 150 146 139 134 131 130 135 143 145 139 138 139 139 137 134 129 118 116 117 116 119 118 116 119 118 116 116 116 116 121 125 123 120 120
131 151 106 136 175 111 138 118 188 150 241 247 224 193 144 152 177 161 136 126 185 178 198 200 138 109 104 210 288 234 202 180 166 165 169 168 170 171 177 182 183 186 188 188 186 184 183 182 182 181 180 180 178 174 175 173 172 173 174 173 169 170 166 160 158 151 145 141 137 139 145 150 150 150 153 151 149 152 149 133 124 124 121 120 120 122 128 126 123 124 123 122 125 126 127 125 125
140 131 88 116 38 62 169 166 162 154 219 231 209 166 107 63 142 140 148 145 211 222 142 80 128 131 167 165 214 213 194 181 169 169 172 172 174 174 182 183 184 186 188 191 190 189 187 185 185 184 185 184 181 178 176 175 176 178 178 177 176 177 174 170 168 161 154 151 147 146 148 152 155 157 158 154 155 161 158 144 133 130 127 124 126 126 130 132 130 132 131 130 130 130 130 129 129
116 109 70 85 38 78 191 211 135 136 226 219 216 139 97 331 131 134 202 150 158 284 38 42 31 344 168 175 219 191 181 176 170 172 173 174 175 176 182 182 184 186 187 191 191 192 190 188 188 187 189 188 185 182 179 179 180 182 182 182 184 183 182 178 174 168 163 160 156 153 154 156 157 156 154 152 158 161 157 148 141 137 133 130 132 130 133 139 139 139 140 140 139 137 135 134 133
64 82 72 76 165 201 199 183 165 165 215 223 253 155 122 295 332 117 238 97 111 49 44 10 338 14 168 240 212 170 169 170 171 176 174 174 172 170 175 179 181 183 186 190 191 193 192 192 190 190 191 191 189 186 185 184 183 186 186 185 188 190 189 184 180 176 172 168 164 161 159 159 160 158 155 151 153 156 154 151 148 143 138 135 136 133 137 143 145 147 148 148 148 146 144 140 137
58 91 105 152 187 208 180 180 199 178 170 190 208 169 137 162 237 140 54 56 75 63 34 2 3 18 16 178 151 156 162 166 172 176 174 173 169 166 171 176 179 182 186 189 192 193 194 195 194 193 193 194 193 190 188 188 188 190 189 189 192 194 193 191 187 184 182 177 173 169 166 164 164 163 160 155 151 153 155 155 152 148 146 143 139 136 141 148 152 154 155 155 155 153 151 145 142
92 119 112 199 206 201 195 195 204 195 171 171 184 174 154 175 177 131 137 159 106 96 16 2 26 19 39 111 141 152 161 166 173 175 175 176 174 171 172 176 179 184 187 189 192 195 197 198 198 198 196 196 195 193 193 192 193 193 193 193 195 197 196 196 193 191 189 186 182 176 172 170 169 169 167 163 158 157 158 158 156 153 152 148 145 140 145 153 159 161 161 160 160 158 156 150 147
161 118 109 227 216 203 225 200 207 245 186 154 170 178 170 192 169 141 165 170 162 165 189 119 128 209 139 137 147 155 163 169 176 179 181 184 183 181 178 179 183 187 191 192 193 196 201 201 200 201 200 198 197 197 197 196 197 197 197 197 197 198 198 198 197 196 194 192 189 182 179 176 174 174 173 172 169 164 162 161 161 159 157 154 152 148 151 160 164 165 165 163 163 162 159 154 152
153 111 164 217 182 156 259 229 263 284 157 152 150 136 200 220 166 152 146 142 243 236 210 193 191 182 168 173 164 162 168 173 180 185 188 191 191 191 188 187 189 192 193 193 195 198 202 202 201 202 203 202 200 200 200 199 200 200 201 200 200 201 200 200 199 199 197 196 194 188 184 181 180 179 178 179 178 173 169 167 166 165 164 161 159 158 160 166 166 167 167 166 165 165 163 158 157
88 26 194 187 140 145 267 268 300 357 102 115 127 143 197 173 137 161 149 160 227 229 214 207 186 170 171 174 172 170 173 178 184 190 194 196 198 198 198 196 195 195 194 194 198 201 202 203 202 202 203 204 204 204 203 202 203 203 204 202 202 204 204 202 200 201 199 197 198 193 188 185 185 185 184 184 183 180 176 174 172 171 171 168 167 167 167 168 170 171 171 171 169 168 166 161 160
102 280 238 183 164 156 221 271 317 119 118 130 154 177 160 119 247 182 163 198 226 222 210 208 183 169 170 165 167 173 179 186 190 194 196 198 200 202 201 200 199 198 197 198 200 202 203 204 204 204 204 205 207 208 206 205 206 206 207 206 204 205 207 206 203 202 202 199 200 198 193 189 190 189 189 188 187 185 183 181 178 177 177 173 173 175 172 172 174 174 175 176 173 172 169 164 161
101 172 282 46 142 135 179 149 38 88 128 170 167 125 138 156 207 129 191 232 242 257 244 179 162 159 160 158 172 183 186 191 196 199 199 200 203 203 203 202 202 202 201 202 202 203 204 205 206 207 206 206 207 209 209 208 208 208 209 209 208 207 208 210 208 204 203 201 201 203 199 195 194 192 191 191 190 189 187 186 183 181 180 176 177 180 178 177 178 179 179 180 178 176 172 167 163
94 157 214 80 59 146 325 79 63 61 103 114 107 122 214 192 184 146 235 243 245 260 30 96 136 145 157 169 182 188 192 198 202 205 205 208 208 207 208 206 205 205 205 205 204 205 206 207 207 208 209 209 209 210 211 211 210 209 210 211 211 210 209 211 213 208 205 204 203 205 205 201 198 195 194 193 193 192 190 189 187 184 182 179 180 183 184 182 182 183 183 183 181 179 175 170 166
180 145 164 135 89 264 61 75 65 59 22 39 110 217 298 258 256 276 245 237 223 141 79 106 133 145 173 179 186 190 196 203 205 207 209 212 212 213 215 212 210 210 210 209 208 209 209 208 209 209 210 211 212 211 211 213 212 211 211 213 214 213 211 210 213 213 209 207 205 206 208 208 204 200 197 195 196 195 193 191 190 187 184 184 185 185 187 188 187 187 187 186 183 182 180 176 171
154 121 120 104 100 280 67 112 178 87 9 30 151 236 306 328 343 265 262 243 148 124 119 151 147 163 185 186 193 195 198 206 206 206 208 211 213 216 217 214 214 214 213 212 212 213 211 211 211 212 212 212 213 213 212 213 214 214 212 213 215 216 213 209 211 216 215 210 208 208 209 211 210 206 203 202 201 199 198 195 192 189 187 188 189 188 189 192 192 191 191 190 188 188 184 180 177
124 119 89 22 6 343 54 119 201 112 66 146 134 162 313 359 330 237 267 276 150 155 163 180 176 184 191 191 199 199 207 213 209 204 203 207 210 213 214 214 215 214 214 215 216 215 214 214 214 215 215 215 215 214 214 214 215 216 214 213 216 217 215 210 210 215 216 213 211 211 210 212 212 209 208 210 209 204 202 200 195 193 192 190 191 192 191 193 196 194 194 193 191 189 186 182 181
119 107 92 346 4 359 266 148 226 169 145 191 127 35 301 259 230 236 314 51 161 169 179 196 203 205 200 200 204 206 218 219 210 209 211 211 212 211 213 216 215 214 216 218 218 216 217 217 217 217 217 217 217 216 216 217 217 217 216 216 217 217 214 212 213 213 215 214 213 213 212 212 213 212 211 214 215 211 206 204 199 196 195 193 192 194 194 194 196 194 192 192 191 189 185 181 180
122 81 96 18 15 341 279 315 216 157 150 191 125 265 273 247 241 253 337 8 144 172 201 209 214 218 213 210 213 219 225 219 212 216 218 218 217 215 216 219 217 216 218 217 217 218 219 219 218 219 217 217 218 217 217 219 220 219 218 218 219 218 214 213 215 216 217 216 214 213 213 213 213 215 214 213 213 211 209 207 204 200 198 196 195 196 197 197 197 195 192 190 188 188 185 182 182
104 83 70 60 91 274 296 323 140 151 196 78 104 193 263 272 271 279 299 247 166 191 216 216 224 231 230 224 223 231 230 221 220 222 223 223 222 220 221 222 219 218 219 217 218 220 220 220 219 219 218 217 217 217 218 220 221 220 219 219 220 220 218 216 217 217 218 218 216 214 214 215 215 216 216 215 211 210 210 208 207 204 201 199 198 200 202 200 200 198 194 189 184 184 184 182 183
50 108 320 353 151 259 306 296 159 158 248 57 97 204 268 279 278 284 302 192 171 205 224 224 229 232 235 237 230 235 240 232 230 231 229 228 227 225 226 225 221 219 220 220 221 220 220 221 220 219 218 217 217 217 219 221 222 221 221 221 221 222 222 221 221 221 220 219 218 217 217 216 217 218 217 215 212 209 210 211 210 207 203 202 202 203 205 204 203 199 195 193 186 182 183 182 182
0 103 197 266 161 264 310 295 225 169 182 15 96 207 266 282 270 284 327 72 147 214 241 244 236 235 233 231 232 234 243 243 238 237 235 233 231 230 230 229 226 223 222 222 221 220 220 220 220 220 220 219 218 217 218 221 222 222 222 222 223 224 223 223 224 225 223 221 220 220 220 218 217 218 217 216 214 211 211 212 211 207 204 203 204 205 207 208 205 199 193 194 194 187 184 182 180
293 54 173 229 173 188 277 277 297 57 131 259 115 207 248 265 275 289 315 50 113 230 246 251 245 247 244 236 240 238 239 244 239 235 234 233 233 233 232 232 231 227 225 224 222 222 222 221 220 220 221 221 219 218 218 219 221 222 222 223 224 225 226 227 227 226 224 222 221 221 223 222 218 217 216 216 216 215 214 215 214 209 205 203 204 205 207 208 207 203 194 190 194 193 188 185 182
190 184 168 225 203 196 238 241 255 42 87 226 182 236 257 265 278 288 291 295 215 245 246 249 249 248 251 250 247 244 243 245 240 236 235 234 233 233 233 233 232 230 227 225 223 223 222 221 221 220 221 221 219 218 218 218 219 220 222 223 224 225 227 228 228 226 223 222 222 222 223 224 223 221 219 217 216 217 216 217 216 212 208 206 205 204 204 203 202 200 197 191 190 193 192 189 185
168 175 149 158 186 223 241 247 259 167 128 243 224 231 256 266 275 278 279 269 217 254 265 260 258 251 250 252 249 249 247 248 247 242 239 236 234 234 234 233 232 231 229 226 223 222 221 220 219 219 219 219 217 215 216 216 216 218 220 221 223 225 226 227 227 226 224 223 224 223 223 225 225 224 224 221 218 218 218 217 215 212 209 206 204 203 201 203 201 198 198 194 188 185 187 187 184
134 126 112 147 170 232 254 257 288 174 143 258 241 243 261 264 268 265 271 286 249 251 258 255 253 250 247 245 249 249 244 252 258 251 244 239 236 234 233 232 231 229 227 225 222 221 221 220 218 218 218 217 215 214 214 213 212 214 216 219 222 224 224 224 224 224 224 225 225 225 225 226 225 223 224 224 221 220 219 217 214 212 210 206 206 206 204 204 203 200 197 194 190 184 180 182 182
93 122 120 121 174 224 255 249 296 353 135 270 328 312 270 257 263 264 263 272 257 238 236 245 247 247 249 247 250 250 251 262 266 257 247 240 239 235 232 230 227 226 225 223 222 223 222 220 220 221 220 217 217 218 216 215 215 215 216 218 220 222 222 222 222 223 225 226 227 227 227 227 227 225 226 227 224 222 219 216 215 215 213 211 210 208 206 203 200 199 195 190 189 187 182 181 181
81 109 124 139 217 244 293 304 313 5 106 272 344 333 279 262 256 259 251 241 248 239 226 237 245 249 251 245 247 251 257 263 259 256 251 244 241 236 230 228 226 227 226 224 222 222 221 219 221 222 222 221 221 221 219 219 220 219 219 220 221 222 224 223 224 225 225 227 228 228 229 229 228 227 228 229 226 224 221 218 217 217 216 215 212 208 205 202 198 198 197 191 186 186 184 184 185
89 108 130 205 255 179 276 301 313 352 59 269 326 311 282 283 272 266 261 243 255 259 240 239 239 239 243 243 243 243 245 252 257 259 255 250 247 238 229 226 225 224 223 222 221 220 220 220 222 223 223 224 224 223 222 223 222 221 221 223 225 226 228 228 228 229 228 228 229 229 230 229 227 227 229 228 223 220 219 216 217 221 220 217 213 208 205 203 200 198 198 194 188 183 182 187 190
34 135 142 181 215 170 194 291 324 354 15 10 358 325 291 313 334 292 289 290 270 269 269 263 249 238 245 254 252 243 241 246 253 257 256 249 243 236 229 225 224 221 220 222 221 221 222 222 223 224 224 226 226 225 223 222 221 220 219 221 225 227 229 230 229 230 229 229 230 230 230 228 227 228 229 230 228 226 223 220 221 223 220 216 212 208 205 204 204 203 200 198 196 193 190 189 191
308 217 172 171 167 158 169 0 34 32 349 339 27 4 292 308 320 275 296 334 299 289 295 266 253 247 247 254 258 256 256 249 246 256 260 254 243 236 231 225 220 220 222 224 224 224 224 224 225 225 226 227 227 226 223 221 220 219 218 218 220 221 224 227 228 229 229 229 229 229 229 228 228 228 229 231 233 233 230 225 224 220 214 212 210 208 208 207 206 206 205 203 203 203 198 190 190
237 231 170 150 129 123 129 84 63 83 258 303 55 102 268 296 284 258 283 335 305 293 283 266 260 263 254 250 258 265 265 257 254 259 260 258 245 232 228 224 219 221 225 225 224 224 224 226 227 227 228 229 228 227 224 222 221 220 221 222 223 223 224 228 230 232 233 232 230 229 228 228 227 227 227 227 229 231 230 227 226 223 216 214 212 210 211 213 211 209 208 208 206 204 201 195 194
229 226 133 128 121 127 135 109 99 209 245 324 15 113 236 288 267 244 260 320 300 290 282 282 278 268 260 256 260 258 248 245 242 250 255 254 239 227 226 226 223 225 227 224 222 224 225 227 229 230 231 230 229 228 226 225 224 223 225 226 228 229 230 234 234 235 235 235 234 232 231 230 229 228 228 228 228 230 232 231 230 228 221 219 220 221 224 224 218 212 209 208 206 204 206 205 200
239 194 126 130 129 132 124 101 99 4 4 317 310 131 196 275 268 281 359 306 291 287 283 291 294 283 275 268 265 256 246 242 234 240 255 256 242 235 233 233 230 228 227 225 224 226 227 228 230 231 232 232 231 230 229 229 228 228 228 228 230 232 234 237 238 237 236 235 236 236 236 235 234 233 232 233 232 232 234 235 237 236 230 226 225 225 229 228 221 215 211 208 206 207 209 209 206
187 135 99 74 74 82 80 92 104 42 5 254 242 190 191 271 279 304 354 280 261 274 285 289 295 297 290 275 269 267 270 278 264 243 252 261 255 247 242 239 237 232 228 228 227 227 228 229 230 231 233 233 233 233 232 231 230 230 230 230 231 233 234 235 236 237 236 236 237 238 238 238 238 238 237 237 237 236 235 237 240 242 240 238 234 228 222 219 217 216 214 211 209 211 212 212 211
125 97 70 51 32 33 44 55 82 66 291 254 236 212 171 269 281 267 222 221 226 260 296 302 319 339 344 326 295 288 305 327 336 314 309 318 292 262 246 238 239 235 230 229 229 229 231 231 232 233 235 235 235 235 233 232 231 230 231 231 232 233 233 233 233 234 235 235 237 238 239 239 239 240 240 238 238 238 235 235 237 238 238 237 236 232 226 223 222 219 215 213 212 214 215 215 215
96 84 81 69 356 6 18 0 41 145 256 262 256 215 147 219 262 258 237 250 242 225 257 281 333 3 352 329 299 289 304 315 320 324 327 342 337 269 246 237 235 233 230 230 231 233 233 234 234 235 237 236 236 235 234 233 232 232 232 233 233 234 234 234 234 235 235 236 237 239 239 239 239 240 240 239 238 237 233 233 234 232 231 228 227 228 229 229 227 220 215 214 215 216 218 217 216
77 93 97 90 342 4 345 300 263 225 246 267 271 188 181 227 247 259 262 263 244 218 216 218 182 349 304 294 292 301 311 304 301 295 291 298 287 263 250 241 236 233 233 234 236 236 236 236 236 238 239 238 236 235 234 234 233 233 234 234 234 235 236 236 237 238 238 238 239 239 238 237 237 237 237 238 238 236 233 234 235 232 228 226 226 227 227 225 223 220 218 219 220 221 220 218 216
130 139 132 131 131 122 257 263 273 260 259 283 288 246 258 273 264 250 251 253 227 218 227 234 224 243 266 274 285 302 309 293 277 272 274 272 258 250 243 240 239 239 240 240 240 239 239 239 238 240 242 241 238 236 235 234 235 235 235 236 236 237 237 238 239 240 241 241 241 240 239 239 238 239 240 242 242 238 234 234 235 237 236 233 230 230 227 225 224 223 223 224 225 225 222 219 219
178 154 135 152 159 163 209 216 210 245 274 299 292 246 207 226 293 259 251 262 246 236 265 282 275 263 262 282 301 310 309 293 279 277 272 262 256 252 247 242 240 241 243 243 244 243 241 241 242 243 245 243 240 237 236 235 236 237 236 237 238 238 240 241 242 243 243 243 243 242 242 242 242 244 246 248 247 243 237 234 234 237 240 240 237 235 233 230 228 227 227 228 227 226 222 220 221
232 119 107 176 188 149 142 194 179 179 296 296 259 233 214 213 275 279 272 279 261 230 255 263 264 270 283 312 313 305 300 294 293 293 280 274 274 267 259 253 249 248 247 246 246 244 243 244 245 246 249 247 244 241 239 238 239 239 238 239 239 240 241 242 243 244 244 245 245 245 246 246 246 248 250 249 249 246 241 237 235 235 236 238 240 239 237 233 231 230 230 229 228 228 225 223 223
174 140 182 218 178 118 112 243 3 78 252 266 207 246 292 328 287 285 291 292 295 283 268 248 233 237 274 302 293 290 290 285 281 282 281 288 296 289 275 268 265 261 259 256 253 250 248 249 249 250 252 250 247 245 243 242 241 240 240 241 242 242 242 243 244 245 246 247 248 248 249 249 249 250 250 249 248 249 247 241 238 236 235 236 238 238 237 235 233 232 231 230 230 229 226 224 224
131 183 211 196 88 84 108 204 349 40 248 274 240 237 281 303 273 313 4 261 270 278 288 297 299 84 115 240 253 250 259 269 280 282 278 286 292 287 279 275 276 274 270 267 264 260 256 254 254 254 255 253 251 250 247 245 243 242 243 243 244 244 245 246 247 248 249 249 249 249 249 249 250 249 249 247 246 247 248 246 243 239 237 236 235 235 236 235 234 232 231 231 231 229 226 225 225
134 189 183 117 127 205 106 157 201 163 239 279 286 261 255 212 227 313 125 207 215 242 291 310 311 331 44 301 290 279 272 301 312 299 298 297 282 276 277 279 279 278 275 272 269 265 261 258 256 255 257 258 258 255 251 248 246 245 247 247 248 248 248 249 250 250 250 250 249 250 249 249 249 247 246 244 243 245 245 246 247 245 242 239 236 233 233 233 233 232 231 231 230 229 227 227 227
69 96 115 97 142 169 161 163 165 169 207 261 304 308 267 224 204 177 193 207 191 186 284 291 256 242 233 332 341 338 340 335 304 292 294 276 265 274 295 294 282 277 274 271 267 264 262 260 258 256 257 257 257 256 253 252 250 249 249 250 250 250 249 250 251 251 251 251 250 250 249 248 247 245 244 241 242 245 243 243 247 249 246 244 241 237 234 233 232 232 232 231 231 230 229 230 230
144 159 173 176 94 117 166 182 129 141 172 202 271 286 268 248 201 169 185 214 202 159 136 169 199 210 232 306 326 324 325 304 275 265 261 258 277 317 330 303 285 278 273 270 266 264 263 262 260 258 257 256 254 254 253 254 253 252 252 251 251 251 251 251 252 252 252 252 252 251 249 249 247 245 244 242 243 245 244 244 247 249 247 245 244 241 238 234 232 231 232 232 233 232 231 231 230
169 181 193 184 161 130 154 234 248 134 166 181 192 270 270 235 195 184 186 207 205 160 152 180 199 212 272 310 302 272 276 281 275 274 283 314 336 334 325 312 304 292 282 278 274 270 268 266 265 263 261 260 258 254 253 254 255 254 254 253 253 253 252 252 252 251 252 253 252 251 249 248 246 245 244 243 244 247 246 247 248 247 248 247 245 243 239 235 233 232 232 233 234 233 232 230 228